Weather History for Auburn, IN

Change the Weather History Date:

Monday, February 18, 2013

  Actual Average (KFWA) Record (KFWA)
Temperature  
Mean Temperature 36 °F 29 °F  
Max Temperature 51 °F 37 °F 61 °F (1961)
Min Temperature 21 °F 21 °F -13 °F (1936)
Degree Days  
Heating Degree Days 29 36  
Month to date heating degree days 684  
Since 1 July heating degree days 4255  
Cooling Degree Days 0 0  
Month to date cooling degree days 0  
Year to date cooling degree days 0  
Moisture  
Dew Point 25 °F    
Average Humidity 62    
Maximum Humidity 81    
Minimum Humidity 47    
Precipitation  
Precipitation 0.08 in 0.08 in 0.68 in (1938)
Month to date precipitation 1.28  
Year to date precipitation 3.54  
Snow  
Snow 0.00 in 0.20 in 5.80 in (1928)
Month to date snowfall 5.3  
Since 1 July snowfall 26.0  
Snow Depth -    
Sea Level Pressure  
Sea Level Pressure 29.88 in    
Wind  
Wind Speed 7 mph (SSE)    
Max Wind Speed 18 mph    
Max Gust Speed 33 mph    
Visibility 10 miles    
Events Rain    
T = Trace of Precipitation, MM = Missing Value Source: NWS Daily Summary

Daily Weather History Graph

Daily Weather History Graph

Search for Another Location

Airport:

Trip Planner

Search our weather history database for the weather conditions in past years. The results will help you decide how hot, cold, wet, or windy it might be!

Date:

Astronomy

Feb. 18, 2013 Rise Set
Actual Time 7:30 AM EST 6:18 PM EST
Civil Twilight 7:02 AM EST 6:46 PM EST
Nautical Twilight 6:30 AM EST 7:18 PM EST
Astronomical Twilight 5:58 AM EST 7:50 PM EST
Moon 12:01 PM EST (2/18) 2:11 AM EST (2/18)
Length of Visible Light 11h 43m
Length of Day
10h 47m
First Quarter, 58% of the Moon is Illuminated
Feb 18
First Quarter
Feb 25
Full
Mar 4
Last Quarter
Mar 11
New
Mar 19
First Quarter

Hourly Weather History & Observations

Time (EST) Temp. Windchill Dew Point Humidity Pressure Visibility Wind Dir Wind Speed Gust Speed Precip Events Conditions
12:15 AM 23.0 °F 17.0 °F 14.0 °F 68% 30.15 in 10.0 mi ESE 4.6 mph - N/A   Clear
12:35 AM 23.0 °F 18.4 °F 14.0 °F 68% 30.16 in 10.0 mi SE 3.5 mph - N/A   Clear
12:55 AM 23.0 °F 18.4 °F 14.0 °F 68% 30.16 in 10.0 mi SE 3.5 mph - N/A   Clear
1:15 AM 23.0 °F 17.0 °F 14.0 °F 68% 30.15 in 10.0 mi SE 4.6 mph - N/A   Clear
1:35 AM 23.0 °F 18.4 °F 14.0 °F 68% 30.15 in 10.0 mi SE 3.5 mph - N/A   Clear
1:55 AM 23.0 °F 18.4 °F 14.0 °F 68% 30.15 in 10.0 mi ESE 3.5 mph - N/A   Clear
2:15 AM 23.0 °F 18.4 °F 14.0 °F 68% 30.15 in 10.0 mi SE 3.5 mph - N/A   Clear
2:35 AM 21.2 °F 14.9 °F 14.0 °F 74% 30.14 in 10.0 mi SE 4.6 mph - N/A   Clear
2:55 AM 21.2 °F 16.4 °F 14.0 °F 74% 30.14 in 10.0 mi ESE 3.5 mph - N/A   Clear
3:35 AM 21.2 °F 16.4 °F 14.0 °F 74% 30.11 in 10.0 mi SE 3.5 mph - N/A   Clear
3:55 AM 21.2 °F 14.9 °F 14.0 °F 74% 30.11 in 10.0 mi SE 4.6 mph - N/A   Scattered Clouds
4:15 AM 21.2 °F 16.4 °F 14.0 °F 74% 30.10 in 10.0 mi SE 3.5 mph - N/A   Clear
4:35 AM 23.0 °F 15.8 °F 14.0 °F 68% 30.09 in 10.0 mi ESE 5.8 mph - N/A   Mostly Cloudy
4:55 AM 23.0 °F 17.0 °F 14.0 °F 68% 30.08 in 10.0 mi SE 4.6 mph - N/A   Overcast
5:15 AM 23.0 °F 14.7 °F 14.0 °F 68% 30.07 in 10.0 mi ESE 6.9 mph - N/A   Scattered Clouds
5:35 AM 23.0 °F 17.0 °F 14.0 °F 68% 30.07 in 10.0 mi SE 4.6 mph - N/A   Clear
5:55 AM 23.0 °F 17.0 °F 14.0 °F 68% 30.05 in 10.0 mi ESE 4.6 mph - N/A   Clear
6:35 AM 23.0 °F 15.8 °F 12.2 °F 63% 30.03 in 10.0 mi SE 5.8 mph - N/A   Clear
6:55 AM 23.0 °F 17.0 °F 12.2 °F 63% 30.02 in 10.0 mi ESE 4.6 mph - N/A   Clear
7:15 AM 23.0 °F 15.8 °F 14.0 °F 68% 30.01 in 10.0 mi ESE 5.8 mph - N/A   Clear
7:35 AM 23.0 °F 15.8 °F 14.0 °F 68% 30.00 in 10.0 mi SE 5.8 mph - N/A   Clear
7:55 AM 24.8 °F 17.9 °F 14.0 °F 64% 29.99 in 10.0 mi SE 5.8 mph - N/A   Clear
8:15 AM 26.6 °F 19.1 °F 14.0 °F 59% 29.99 in 10.0 mi SE 6.9 mph - N/A   Clear
8:35 AM 26.6 °F 19.1 °F 14.0 °F 59% 29.98 in 10.0 mi SE 6.9 mph - N/A   Clear
8:55 AM 28.4 °F 23.3 °F 15.8 °F 59% 29.98 in 10.0 mi SSE 4.6 mph - N/A   Clear
9:15 AM 30.2 °F 24.3 °F 17.6 °F 60% 29.97 in 10.0 mi SE 5.8 mph - N/A   Clear
9:35 AM 32.0 °F 27.5 °F 17.6 °F 55% 29.97 in 10.0 mi SE 4.6 mph - N/A   Clear
9:55 AM 32.0 °F 25.6 °F 17.6 °F 55% 29.95 in 10.0 mi SSE 6.9 mph - N/A   Clear
10:15 AM 33.8 °F 27.7 °F 19.4 °F 56% 29.94 in 10.0 mi SE 6.9 mph - N/A   Clear
10:35 AM 35.6 °F 29.9 °F 21.2 °F 56% 29.93 in 10.0 mi SSE 6.9 mph - N/A   Clear
10:55 AM 37.4 °F 29.8 °F 21.2 °F 52% 29.93 in 10.0 mi South 11.5 mph 17.3 mph N/A   Clear
11:15 AM 37.4 °F 31.4 °F 23.0 °F 56% 29.92 in 10.0 mi South 8.1 mph - N/A   Clear
11:35 AM 41.0 °F 35.2 °F 23.0 °F 49% 29.91 in 10.0 mi South 9.2 mph 17.3 mph N/A   Clear
11:55 AM 42.8 °F 38.0 °F 26.6 °F 53% 29.90 in 10.0 mi South 8.1 mph - N/A   Clear
12:15 PM 44.6 °F 40.7 °F 26.6 °F 49% 29.88 in 10.0 mi South 6.9 mph 16.1 mph N/A   Clear
12:35 PM 44.6 °F 39.7 °F 28.4 °F 53% 29.87 in 10.0 mi South 9.2 mph - N/A   Clear
12:55 PM 46.4 °F 41.5 °F 30.2 °F 53% 29.86 in 10.0 mi South 10.4 mph 17.3 mph N/A   Clear
1:15 PM 48.2 °F - 30.2 °F 50% 29.85 in 10.0 mi South 8.1 mph - N/A   Clear
1:35 PM 50.0 °F - 32.0 °F 50% 29.83 in 10.0 mi South 10.4 mph 18.4 mph N/A   Clear
1:55 PM 50.0 °F - 32.0 °F 50% 29.82 in 10.0 mi SSW 12.7 mph 16.1 mph N/A   Clear
2:15 PM 51.8 °F - 32.0 °F 47% 29.81 in 10.0 mi South 9.2 mph 20.7 mph N/A   Clear
2:35 PM 51.8 °F - 32.0 °F 47% 29.80 in 10.0 mi South 12.7 mph 18.4 mph N/A   Clear
2:55 PM 51.8 °F - 33.8 °F 50% 29.79 in 10.0 mi South 15.0 mph 25.3 mph N/A   Clear
3:15 PM 51.8 °F - 33.8 °F 50% 29.78 in 10.0 mi South 13.8 mph 25.3 mph N/A   Scattered Clouds
3:35 PM 51.8 °F - 33.8 °F 50% 29.78 in 10.0 mi South 9.2 mph 17.3 mph N/A   Scattered Clouds
3:55 PM 51.8 °F - 33.8 °F 50% 29.78 in 10.0 mi South 16.1 mph 26.5 mph N/A   Mostly Cloudy
4:15 PM 51.8 °F - 33.8 °F 50% 29.77 in 10.0 mi South 15.0 mph 18.4 mph N/A   Overcast
4:35 PM 50.0 °F - 35.6 °F 58% 29.75 in 10.0 mi South 8.1 mph 18.4 mph N/A   Overcast
4:55 PM 50.0 °F - 35.6 °F 58% 29.74 in 10.0 mi South 4.6 mph - N/A   Overcast
5:15 PM 48.2 °F - 37.4 °F 66% 29.73 in 10.0 mi South 4.6 mph - N/A Rain Rain
5:35 PM 46.4 °F 45.2 °F 37.4 °F 71% 29.73 in 10.0 mi SSE 3.5 mph - N/A Rain Light Rain
5:55 PM 46.4 °F 45.2 °F 37.4 °F 71% 29.73 in 10.0 mi South 3.5 mph - N/A Rain Light Rain
6:15 PM 46.4 °F 45.2 °F 39.2 °F 76% 29.72 in 10.0 mi SSE 3.5 mph - 0.01 in Rain Light Rain
6:35 PM 46.4 °F 45.2 °F 37.4 °F 71% 29.72 in 10.0 mi SSE 3.5 mph - 0.01 in   Drizzle
6:55 PM 50.0 °F - 35.6 °F 58% 29.72 in 10.0 mi SSW 9.2 mph 18.4 mph 0.01 in Rain Light Rain
7:15 PM 50.0 °F - 35.6 °F 58% 29.71 in 10.0 mi South 9.2 mph 17.3 mph N/A   Overcast
7:35 PM 50.0 °F - 35.6 °F 58% 29.71 in 10.0 mi South 17.3 mph 25.3 mph N/A Rain Light Rain
7:55 PM 48.2 °F - 35.6 °F 62% 29.70 in 10.0 mi South 13.8 mph 24.2 mph N/A Rain Rain
8:15 PM 48.2 °F - 35.6 °F 62% 29.68 in 10.0 mi South 8.1 mph 17.3 mph N/A   Overcast
8:35 PM 48.2 °F - 35.6 °F 62% 29.68 in 10.0 mi South 18.4 mph 27.6 mph N/A   Overcast
8:55 PM 48.2 °F - 35.6 °F 62% 29.66 in 10.0 mi South 13.8 mph 24.2 mph N/A   Overcast
9:15 PM 48.2 °F - 35.6 °F 62% 29.65 in 10.0 mi South 8.1 mph 19.6 mph N/A   Overcast
9:35 PM 46.4 °F 42.9 °F 35.6 °F 66% 29.64 in 10.0 mi South 6.9 mph - N/A   Overcast
9:55 PM 46.4 °F 41.9 °F 35.6 °F 66% 29.64 in 10.0 mi South 9.2 mph - N/A Rain Rain
10:15 PM 44.6 °F 39.2 °F 37.4 °F 76% 29.63 in 10.0 mi South 10.4 mph 19.6 mph 0.02 in Rain Rain
10:55 PM 44.6 °F 38.1 °F 37.4 °F 76% 29.60 in 7.0 mi South 13.8 mph 24.2 mph 0.05 in Rain Rain
11:15 PM 44.6 °F 37.4 °F 39.2 °F 81% 29.59 in 7.0 mi South 16.1 mph 28.8 mph 0.02 in Rain Light Rain
11:35 PM 44.6 °F 38.1 °F 39.2 °F 81% 29.58 in 10.0 mi South 13.8 mph 23.0 mph 0.02 in Rain Light Rain
11:55 PM 44.6 °F 37.2 °F 39.2 °F 81% 29.57 in 10.0 mi South 17.3 mph 33.4 mph 0.02 in Rain Rain